Location: Middle Street
(51.7167°N, 0.0333°E)
Time: 02:26:48
(UTC+00:00)

H-2A R/B - Pass Details

Date: 20 January 2021
Orbit: 734 x 836 km, 98.2° (Epoch: 28 February)

Event Time Altitude Azimuth Distance (km) Brightness Sun altitude
Rises 18:11:27 0° 152° (SSE) 3,176 5.0 -15.6°
Reaches altitude 10° 18:13:43 10° 149° (SSE) 2,267 4.3 -15.9°
Maximum altitude 18:18:38 61° 70° (ENE) 866 1.9 -16.7°
Drops below altitude 10° 18:23:42 10° 351° (N) 2,342 4.5 -17.5°
Sets 18:26:05 0° 348° (NNW) 3,291 5.3 -17.8°
